Location: Blue Moon Observatory
(43.0710°N, 82.8810°W)
Time: 14:12:49
(UTC-04:00)

Tiangong 2 - Visible Passes

Search period start: 24 June 2018 00:00
Search period end: 04 July 2018 00:00
Orbit: 385 x 396 km, 42.8° (Epoch: 24 June)

Date Brightness Start Highest point End Pass type
(mag) Time Alt. Az. Time Alt. Az. Time Alt. Az.
27 Jun 3.4 04:33:54 12° S 04:35:17 14° SSE 04:37:06 10° ESE visible
28 Jun 2.0 05:11:17 10° SW 05:14:15 36° SSE 05:17:15 10° E visible
29 Jun 2.5 04:16:08 22° S 04:16:52 24° SSE 04:19:31 10° E visible
30 Jun 3.7 03:21:02 12° ESE 03:21:02 12° ESE 03:21:32 10° ESE visible
30 Jun 1.3 04:53:22 14° WSW 04:55:59 55° SSE 04:59:08 10° E visible
01 Jul 1.7 03:58:16 38° S 03:58:32 39° SSE 04:01:33 10° E visible
02 Jul 3.6 03:03:09 15° ESE 03:03:09 15° ESE 03:03:53 10° E visible
02 Jul 1.0 04:35:28 17° WSW 04:37:47 75° S 04:40:59 10° E visible
03 Jul 1.1 03:40:23 58° SSE 03:40:23 58° SSE 03:43:26 10° E visible
03 Jul 1.1 05:13:56 10° W 05:17:08 87° S 05:20:21 10° E visible
